This demonstration page uses our WeatherBlox Daily Observations layout. Learn more.

Left ArrowRight Arrow

Hourly Observations for December 11, 2017

Temp ( °F °C ) Dew Point ( °F °C ) Humidity (%) Winds ( mph kmh ) Pressure ( in mb ) Visibility ( mi km ) Precip ( " mm )
12:53 am 00:53 Clear 29 -1.7 28 -2.2 96 96 Calm 30.26 1025 10 16 0.00 0.00
1:53 am 01:53 Clear 29 -1.7 27 -2.8 92 92 Calm 30.24 1024 10 16 0.00 0.00
2:53 am 02:53 Clear 29 -1.7 28 -2.2 96 96 Calm 30.23 1024 10 16 0.00 0.00
3:53 am 03:53 Clear 30 -1.1 28 -2.2 92 92 SW 3 6 30.22 1023 10 16 0.00 0.00
4:53 am 04:53 Clear 29 -1.7 27 -2.8 92 92 Calm 30.21 1023 10 16 0.00 0.00
5:53 am 05:53 Clear 27 -2.8 26 -3.3 96 96 Calm 30.21 1023 10 16 0.00 0.00
6:53 am 06:53 Clear 27 -2.8 26 -3.3 96 96 Calm 30.22 1023 10 16 0.00 0.00
7:53 am 07:53 Sunny 27 -2.8 26 -3.3 96 96 Calm 30.22 1023 10 16 0.00 0.00
8:53 am 08:53 Sunny 31 -0.6 29 -1.7 92 92 WSW 3 6 30.21 1023 10 16 0.00 0.00
9:53 am 09:53 Sunny 37 2.8 30 -1.1 76 76 Calm 30.20 1023 10 16 0.00 0.00
10:53 am 10:53 Sunny 42 5.6 31 -0.6 65 65 S 5 7 30.20 1023 10 16 0.00 0.00
11:53 am 11:53 Sunny 46 7.8 32 0 58 58 S 3 6 30.16 1021 10 16 0.00 0.00
12:53 pm 12:53 Sunny 49 9.4 32 0 52 52 WSW 3 6 30.11 1020 10 16 0.00 0.00
1:53 pm 13:53 Sunny 52 11.1 32 0 47 47 SW 6 9 30.09 1019 10 16 0.00 0.00
2:53 pm 14:53 Sunny 55 12.8 33 0.6 44 44 SSW 7 11 30.06 1018 10 16 0.00 0.00
3:53 pm 15:53 Sunny 56 13.3 33 0.6 42 42 SSW 6 9 30.05 1018 10 16 0.00 0.00
4:53 pm 16:53 Sunny 56 13.3 34 1.1 44 44 SW 3 6 30.04 1017 10 16 0.00 0.00
5:53 pm 17:53 Clear 52 11.1 34 1.1 50 50 SW 3 6 30.02 1017 10 16 0.00 0.00
6:53 pm 18:53 Clear 47 8.3 36 2.2 66 66 Calm 30.03 1017 10 16 0.00 0.00
7:53 pm 19:53 Clear 43 6.1 36 2.2 76 76 Calm 30.02 1017 10 16 0.00 0.00
8:53 pm 20:53 Clear 38 3.3 35 1.7 89 89 Calm 30.01 1016 10 16 0.00 0.00
9:53 pm 21:53 Clear 38 3.3 35 1.7 89 89 Calm 30.00 1016 10 16 0.00 0.00
10:53 pm 22:53 Clear 39 3.9 35 1.7 86 86 SW 3 6 29.98 1015 10 16 0.00 0.00
11:53 pm 23:53 Clear 35 1.7 33 0.6 93 93 Calm 29.96 1015 10 16 0.00 0.00

Powered by AerisWeather